Location: Agadir Irigdalene
(31.2522°N, 8.7797°W)
Time: 06:48:51
(UTC+00:00)

Orbus 7S - Pass Details

Date: 01 December 2020
Orbit: 393 x 14144 km, 27.4° (Epoch: 25 January)

Event Time Altitude Azimuth Distance (km) Brightness Sun altitude
Rises 17:57:38 0° 267° (W) 4,896 9.8 -5.8°
Reaches altitude 10° 18:02:14 10° 262° (W) 2,758 8.4 -6.7°
Maximum altitude 18:07:18 47° 188° (S) 684 4.0 -7.7°
Drops below altitude 10° 18:09:58 10° 111° (ESE) 1,452 5.0 -8.3°
Enters shadow 18:10:32 - 108° (ESE) 1,719 5.4 -8.4°
